User: anonymous   Login
Location: Unspecified
(0.0000°N, 0.0000°E)
Time: 09:59:39
(UTC+00:00)
Language:

FLOCK 3S 1 - Orbit

View from above orbital plane
View from above orbital plane
View from above satellite
View from above satellite

Ground track
Ground track

The orbit is defined by the following mean orbital elements,

1 43770U          26145.59282205 +.00000000 +00000-0 +42389-3 0 00004
2 43770  97.4402 205.9301 0010165  73.6783 286.5572 15.26140361    00
Epoch (UTC): 25 May 2026 14:13:39
Eccentricity: 0.0010165
inclination: 97.4402°
perigee height: 480 km
apogee height: 494 km
right ascension of ascending node: 205.9301°
argument of perigee: 73.6783°
revolutions per day: 15.26140361
mean anomaly at epoch: 286.5572°

The dashed part of the orbit path shows where the satellite is in the earth's shadow,  

DLR